Regional Weather Roundup
Issued by NWS

Home | Current Version | Previous Version | Graphics & Text | Print | Product List | Glossary On
Versions: 1 2 3 4 5 6 7 8 9 10 11 12 13 14 15 16 17 18 19 20 21 22 23 24 25 26 27 28 29 30 31 32 33 34 35 36 37 38 39 40 41 42 43 44 45 46 47 48 49 50
816
ASUS45 KPSR 221110
RWRAZ

ARIZONA HOURLY REGIONAL WEATHER ROUNDUP
NATIONAL WEATHER SERVICE PHOENIX AZ
400 AM MST FRI JUL 22 2016

NOTE: FAIR INDICATES FEW OR NO CLOUDS BELOW 12,000 FEET WITH NO
SIGNIFICANT WEATHER AND/OR OBSTRUCTIONS TO VISIBILITY.

AZZ001>003-036-221200-
NORTHWEST ARIZONA

CITY           SKY/WX    TMP DP  RH WIND       PRES   REMARKS
BULLHEAD CITY  CLEAR     93  39  15 CALM      29.82S
KINGMAN        CLEAR     82  41  23 MISG      30.07R
$$

AZZ004>008-015-016-018-221200-
NORTH CENTRAL ARIZONA

CITY           SKY/WX    TMP DP  RH WIND       PRES   REMARKS
GRAND CANYON   CLEAR     57  49  74 CALM      30.37R
WILLIAMS       PTCLDY    59  50  72 S10       30.44S
PRESCOTT       CLEAR     70  51  51 S6        30.23S
FLAGSTAFF      PTCLDY    55  51  86 CALM      30.40F
PAYSON         CLOUDY    73  50  43 NE3       30.29S
PAGE           PTCLDY    81  52  36 S6        30.16R
$$

AZZ009>014-017-221200-
NORTHEAST ARIZONA

CITY           SKY/WX    TMP DP  RH WIND       PRES   REMARKS
WINSLOW        MOCLDY    66  55  67 SE6       30.25R
SAINT JOHNS    PTCLDY    61  51  70 S6        30.30S
WINDOW ROCK    CLEAR     58  55  90 CALM      30.39S
SHOW LOW       MOCLDY    63  48  59 S12       30.37S
$$

AZZ023-221200-
GREATER PHOENIX AREA

CITY           SKY/WX    TMP DP  RH WIND       PRES   REMARKS
PHOENIX        MOCLDY    95  58  28 SE10      29.89R
BUCKEYE        MOCLDY    91  55  29 E8        29.89R
LUKE AFB       CLEAR     95  58  28 SE8       29.89R
DEER VALLEY    PTCLDY    93  56  28 SE12      29.92R
SCOTTSDALE     PTCLDY    93  56  28 SE5       29.94S
MESA-GATEWAY   MOCLDY    90  59  35 S14       29.96R
$$

AZZ027-028-221200-
SOUTHWEST MARICOPA COUNTY AND PINAL COUNTY

CITY           SKY/WX    TMP DP  RH WIND       PRES   REMARKS
CASA GRANDE    MOCLDY    91  57  31 SE26G37   29.97S
GILA BEND      FAIR      92  54  26 S5        29.85S
$$

AZZ503-504-507>509-221200-
SOUTHEAST ARIZONA

CITY           SKY/WX    TMP DP  RH WIND       PRES   REMARKS
TUCSON         CLOUDY    83  56  39 SE10      30.11F
DAVIS-MONTHAN  CLOUDY    82  55  39 SE18      30.09F
NOGALES        CLOUDY    70  58  65 NE31G39   30.15F
SIERRA VISTA   LGT RAIN  66  59  77 W31       30.18F
DOUGLAS        CLOUDY    69  61  75 N12       30.20F
SAFFORD        CLOUDY    80  59  48 E8G16     30.10R
$$

AZZ020-021-025-026-031-221200-
SOUTHWEST ARIZONA

CITY           SKY/WX    TMP DP  RH WIND       PRES   REMARKS
YUMA           PTCLDY    90  59  35 S7        29.80S
$$

CAZ031-033-041-043-047-048-061-221200-
SOUTHERN CALIFORNIA

CITY           SKY/WX    TMP DP  RH WIND       PRES   REMARKS
DOWNTOWN L.A.  CLEAR     70  57  63 CALM      29.90S
L.A. AIRPORT   CLEAR     69  61  75 CALM      29.90S
SAN DIEGO      PTCLDY    68  67  96 NW3       29.91F
BURBANK        CLEAR     75  54  47 E5        29.92R
ONTARIO        CLEAR     76  51  41 N3        29.92F
RIVERSIDE      CLEAR     74  46  36 CALM      29.93S
PALM SPRINGS   CLEAR     89  45  21 CALM      29.82F
EL CENTRO NAS  CLEAR     91  40  16 W3        29.78S
IMPERIAL       CLEAR     90  47  22 SW3       29.77R
BLYTHE         CLEAR     90  47  22 W6        29.81R
NEEDLES        CLEAR     95  26   8 W7        29.83S
$$

NVZ020-UTZ003-221200-
SOUTHERN NEVADA-UTAH

CITY           SKY/WX    TMP DP  RH WIND       PRES   REMARKS
LAS VEGAS      CLEAR     90  27  10 S3        29.90S
SALT LAKE CITY MOCLDY    81  48  31 SE9       30.10F
$$

NMZ009-TXZ055-221200-
NEW MEXICO-WEST TEXAS

CITY           SKY/WX    TMP DP  RH WIND       PRES   REMARKS
ALBUQUERQUE    PTCLDY    71  48  43 SE7       30.29R
EL PASO        CLEAR     83  49  30 CALM      30.14R
$$


........................KEY........................
SKY/WX - SKY CONDITION/WEATHER
TMP    - TEMPERATURE IN FAHRENHEIT
DP     - DEW POINT IN FAHRENHEIT
RH     - RELATIVE HUMIDITY IN PERCENT
WIND   - DIRECTION AND SPEED IN MILES PER HOUR (MPH)
VRB    - VARIABLE WIND DIRECTION
PRES   - MEAN SEA LEVEL PRESSURE IN INCHES OF MERCURY
         F - FALLING PRESSURE   R - RISING PRESSURE
         S - STEADY PRESSURE
VSB    - VISIBILITY IN MILES
HX     - HEAT INDEX IN FAHRENHEIT
WCI    - WIND CHILL INDEX IN FAHRENHEIT
TC     - TEMPERATURE IN CELSIUS WHICH IS ALSO KNOWN AS
         TEMPERATURE IN CENTIGRADE
AFB    - AIR FORCE BASE
         LUKE AFB IS LUKE AIR FORCE BASE
         DAVIS-MONTHAN IS DAVIS-MONTHAN AIR FORCE BASE
NAS    - NAVAL AIR STATION
         EL CENTRO NAS IS EL CENTRO NAVAL AIR STATION
N/A    - NOT AVAILABLE





USA.gov is the U.S. government's official web portal to all federal, state and local government web resources and services.